Flag for Australia Weather past 2 weeks in Ballarat, Victoria, Australia

Now
54 °F

Cool.


Feels Like: 51 °F
Forecast: 38 / 54 °F
Wind: 9 mph from North

Location: Sheoaks Aws


UV Index: 3 (Moderate)

Visibility: N/A


Pressure: 29.87 "Hg

Humidity: 59%

Dew point: 40 °F

Location of BallaratLocation

Historic Weather in Ballarat

°F

Ballarat temperature yesterday

Maximum temperature yesterday: 62 °F (at 3:00 PM)
Minimum temperature yesterday: 41 °F (at 6:00 AM)
Average temperature yesterday: 52 °F

Past Weeks' High & Low Weather Summary

 TemperatureHumidityPressure
High72 °F (Apr 17, 2:00 PM)100% (Apr 9, 5:00 AM)30.24 "Hg (Apr 9, 5:00 AM)
Low41 °F (Apr 23, 6:00 AM)37% (Apr 17, 2:00 PM)29.81 "Hg (Apr 10, 5:00 PM)
Average57 °F79%30.06 "Hg
* Reported Midnight between Apr 8 and Apr 9 — Midnight between Apr 23 and Apr 24, Ballarat, Weather by CustomWeather, © 2014

Note: Actual official high and low records may vary slightly from our data, if they occured in-between our weather recording intervals... More about our weather records

Advertising

Historic Weather Conditions — Data for Previous 24 hours

 ConditionsComfort  
Time TempWeatherWind HumidityBarometerVisibility
12:00 AM
Apr 24
54 °FCool.9 mph59%29.87 "HgN/A
11:00 PM
Apr 23
53 °FCool.7 mph62%29.89 "HgN/A
9:00 PM52 °FCool.6 mph67%29.91 "HgN/A
8:00 PM51 °FCool.3 mph73%29.93 "HgN/A
6:00 PM56 °FRefreshingly cool.No wind56%29.91 "HgN/A
5:00 PM60 °FRefreshingly cool.5 mph48%29.92 "HgN/A
3:00 PM62 °FRefreshingly cool.7 mph50%29.93 "HgN/A
2:00 PM62 °FRefreshingly cool.3 mph52%29.94 "HgN/A
12:00 PM60 °FRefreshingly cool.7 mph54%30.01 "HgN/A
11:00 AM58 °FCool.3 mph66%30.01 "HgN/A
9:00 AM51 °FCool.2 mph93%30.04 "HgN/A
8:00 AM42 °FQuite cool.6 mph98%30.03 "HgN/A
6:00 AM41 °FQuite cool.6 mph100%30.01 "HgN/A
5:00 AM41 °FQuite cool.6 mph99%30.01 "HgN/A
3:00 AM44 °FQuite cool.6 mph98%30.01 "HgN/A
2:00 AM44 °FQuite cool.5 mph98%30.03 "HgN/A
Weather by CustomWeather, © 2014

See weather overview